Weather History for LKPR - February, 2013

Change the Weather History Date:

Thursday, February 7, 2013

  Actual Average Record
Temperature  
Mean Temperature 30 °F -  
Max Temperature 35 °F 39 °F 55 °F (2004)
Min Temperature 26 °F 25 °F 5 °F (2012)
Degree Days  
Heating Degree Days 34    
Moisture  
Dew Point 26 °F    
Average Humidity 85    
Maximum Humidity 93    
Minimum Humidity 60    
Precipitation  
Precipitation 0.01 in 0.03 in - ()
Sea Level Pressure  
Sea Level Pressure 29.68 in    
Wind  
Wind Speed 4 mph ()    
Max Wind Speed 12 mph    
Max Gust Speed -    
Visibility 5.6 miles    
Events Snow    
Averages and records for this station are not official NWS values.
T = Trace of Precipitation, MM = Missing Value Source: Averaged Metar Reports

Daily Weather History Graph

Daily Weather History Graph

Search for Another Location

Airport or City:

Trip Planner

Search our weather history database for the weather conditions in past years. The results will help you decide how hot, cold, wet, or windy it might be!

Date:

Astronomy

Feb. 07, 2013 Rise Set
Actual Time 7:27 AM CET 5:07 PM CET
Civil Twilight 6:53 AM CET 5:41 PM CET
Nautical Twilight 6:14 AM CET 6:20 PM CET
Astronomical Twilight 5:37 AM CET 6:57 PM CET
Moon 5:02 AM CET (2/7) 2:02 PM CET (2/7)
Length of Visible Light 10h 48m
Length of Day
9h 39m
Waning Crescent, 11% of the Moon is Illuminated
Feb 7
Waning Crescent
Feb 10
New
Feb 17
First Quarter
Feb 25
Full
Mar 4
Last Quarter

Hourly Weather History & Observations

Time (CET) Temp. Windchill Dew Point Humidity Pressure Visibility Wind Dir Wind Speed Gust Speed Precip Events Conditions
12:00 AM 28.4 °F 24.6 °F 24.8 °F 86% 29.56 in 6.2 mi SW 3.5 mph - N/A   Mostly Cloudy
12:30 AM 28.4 °F 24.6 °F 24.8 °F 86% 29.56 in 6.2 mi WNW 3.5 mph - N/A   Mostly Cloudy
1:00 AM 28 °F - 24 °F 80% 29.65 in 12 mi NNW 4.5 mph - -   Mostly Cloudy
1:00 AM 28.4 °F - 24.8 °F 86% 29.56 in 6.2 mi Variable 2.3 mph - N/A   Mostly Cloudy
1:30 AM 26.6 °F - 23.0 °F 86% 29.56 in 6.2 mi NW 2.3 mph - N/A   Mostly Cloudy
2:00 AM 28.4 °F - 24.8 °F 86% 29.56 in 6.2 mi Variable 1.2 mph - N/A   Overcast
2:30 AM 28.4 °F - 24.8 °F 86% 29.56 in 6.2 mi Variable 1.2 mph - N/A   Overcast
3:00 AM 28.4 °F - 24.8 °F 86% 29.56 in 6.2 mi Variable 1.2 mph - N/A   Overcast
3:30 AM 28.4 °F - 24.8 °F 86% 29.56 in 6.2 mi SW 2.3 mph - N/A   Overcast
4:00 AM 28.4 °F - 24.8 °F 86% 29.59 in 6.2 mi Variable 1.2 mph - N/A   Overcast
4:30 AM 28.4 °F - 24.8 °F 86% 29.59 in 6.2 mi Variable 2.3 mph - N/A   Overcast
5:00 AM 28.4 °F - 24.8 °F 86% 29.59 in 6.2 mi Variable 2.3 mph - N/A   Overcast
5:30 AM 28.4 °F 24.6 °F 24.8 °F 86% 29.59 in 6.2 mi NNW 3.5 mph - N/A   Overcast
6:00 AM 28.4 °F 24.6 °F 24.8 °F 86% 29.59 in 6.2 mi NW 3.5 mph - N/A   Overcast
6:30 AM 28.4 °F 24.6 °F 24.8 °F 86% 29.62 in 6.2 mi WNW 3.5 mph - N/A   Mostly Cloudy
7:00 AM 28.4 °F - 23.0 °F 80% 29.62 in 6.2 mi Variable 1.2 mph - N/A   Mostly Cloudy
7:30 AM 28.4 °F - 24.8 °F 86% 29.62 in 6.2 mi Variable 2.3 mph - N/A   Mostly Cloudy
8:00 AM 28.4 °F - 24.8 °F 86% 29.62 in 6.2 mi Variable 1.2 mph - N/A   Mostly Cloudy
8:30 AM 30.2 °F - 26.6 °F 86% 29.65 in 6.2 mi Variable 1.2 mph - N/A   Mostly Cloudy
9:00 AM 30.2 °F - 26.6 °F 86% 29.65 in 6.2 mi Variable 2.3 mph - N/A   Partly Cloudy
9:30 AM 30.2 °F 26.7 °F 28.4 °F 93% 29.65 in - SW 3.5 mph - N/A   Clear
10:00 AM 32.0 °F 25.6 °F 26.6 °F 80% 29.65 in - WSW 6.9 mph - N/A   Clear
10:30 AM 32.0 °F 25.6 °F 26.6 °F 80% 29.65 in - WSW 6.9 mph - N/A   Clear
11:00 AM 33.8 °F 27.7 °F 28.4 °F 81% 29.68 in 6.2 mi WSW 6.9 mph - N/A   Partly Cloudy
11:30 AM 33.8 °F 27.0 °F 24.8 °F 70% 29.65 in 6.2 mi WNW 8.1 mph - N/A   Partly Cloudy
12:00 PM 33.8 °F 27.7 °F 24.8 °F 70% 29.68 in 6.2 mi WNW 6.9 mph - N/A   Partly Cloudy
12:30 PM 33.8 °F 27.7 °F 26.6 °F 75% 29.68 in 6.2 mi WNW 6.9 mph - N/A   Scattered Clouds
1:00 PM 34 °F - 25 °F 60% 29.75 in 22 mi West 6.7 mph - -   Mostly Cloudy
1:00 PM 33.8 °F 27.7 °F 24.8 °F 70% 29.68 in 6.2 mi West 6.9 mph - N/A   Mostly Cloudy
1:30 PM 33.8 °F 27.7 °F 24.8 °F 70% 29.68 in 6.2 mi WNW 6.9 mph - N/A   Mostly Cloudy
2:00 PM 35.6 °F 30.7 °F 24.8 °F 65% 29.68 in 6.2 mi WNW 5.8 mph - N/A   Mostly Cloudy
2:09 PM 35.6 °F 29.9 °F 24.8 °F 65% 29.68 in 4.3 mi NW 6.9 mph - N/A Snow Light Snow Showers
2:15 PM 33.8 °F 27.0 °F 24.8 °F 70% 29.68 in 1.6 mi WNW 8.1 mph - N/A Snow Snow Showers
2:21 PM 32.0 °F 24.2 °F 26.6 °F 80% 29.71 in 0.9 mi WNW 9.2 mph - N/A Snow Snow Showers
2:30 PM 32.0 °F 24.2 °F 28.4 °F 87% 29.71 in 1.1 mi West 9.2 mph - N/A Snow Snow Showers
2:35 PM 32.0 °F 25.6 °F 28.4 °F 87% 29.71 in 2.5 mi West 6.9 mph - N/A Snow Light Snow Showers
2:40 PM 32.0 °F 25.6 °F 28.4 °F 87% 29.71 in 3.7 mi West 6.9 mph - N/A Snow Light Snow Showers
3:00 PM 32.0 °F - 28.4 °F 87% 29.71 in 5.0 mi West 2.3 mph - N/A Snow Light Snow Showers
3:30 PM 32.0 °F - 28.4 °F 87% 29.71 in 2.8 mi West 2.3 mph - N/A Snow Light Snow Showers
3:36 PM 32.0 °F 27.5 °F 28.4 °F 87% 29.71 in 6.2 mi West 4.6 mph - N/A   Scattered Clouds
4:01 PM 32.0 °F - 26.6 °F 80% 29.71 in 6.2 mi West 2.3 mph - N/A   Partly Cloudy
4:30 PM 32.0 °F - 28.4 °F 87% 29.71 in 6.2 mi Variable 2.3 mph - N/A   Partly Cloudy
5:00 PM 30.2 °F 26.7 °F 26.6 °F 86% 29.71 in 6.2 mi SW 3.5 mph - N/A   Scattered Clouds
5:05 PM 30.2 °F 25.4 °F 28.4 °F 93% 29.71 in 3.1 mi SSW 4.6 mph - N/A Snow Light Snow Showers
5:08 PM 30.2 °F 21.9 °F 28.4 °F 93% 29.71 in 2.5 mi West 9.2 mph - N/A Snow Light Snow Showers
5:13 PM 32.0 °F 24.2 °F 28.4 °F 87% 29.71 in 1.9 mi WSW 9.2 mph - N/A Snow Snow Showers
5:16 PM 30.2 °F 20.8 °F 28.4 °F 93% 29.71 in 2.5 mi West 11.5 mph - N/A Snow Light Snow Showers
5:30 PM 30.2 °F 20.8 °F 28.4 °F 93% 29.74 in 5.0 mi West 11.5 mph - N/A Snow Light Snow Showers
5:40 PM 30.2 °F 24.3 °F 28.4 °F 93% 29.74 in 6.2 mi West 5.8 mph - N/A   Mostly Cloudy
6:00 PM 30.2 °F 23.4 °F 26.6 °F 86% 29.74 in 6.2 mi NW 6.9 mph - N/A   Mostly Cloudy
6:11 PM 30.2 °F 26.7 °F 26.6 °F 86% 29.74 in 5.0 mi WSW 3.5 mph - N/A Snow Light Snow Showers
6:18 PM 28.4 °F 23.3 °F 26.6 °F 93% 29.74 in 6.2 mi SW 4.6 mph - N/A   Mostly Cloudy
6:30 PM 28.4 °F 22.2 °F 26.6 °F 93% 29.74 in 6.2 mi SW 5.8 mph - N/A Snow Light Snow Showers
7:00 PM 28 °F - 26 °F 87% 29.83 in 9 mi SW 6.7 mph - -   Partly Cloudy
7:00 PM 28.4 °F 19.7 °F 26.6 °F 93% 29.74 in 6.2 mi SSW 9.2 mph - N/A   Partly Cloudy
7:30 PM 28.4 °F 21.2 °F 26.6 °F 93% 29.74 in 6.2 mi WSW 6.9 mph - N/A   Mostly Cloudy
8:00 PM 28.4 °F 21.2 °F 26.6 °F 93% 29.74 in 6.2 mi West 6.9 mph - N/A Snow Light Snow Showers
8:30 PM 26.6 °F 21.2 °F 24.8 °F 93% 29.74 in 6.2 mi WNW 4.6 mph - N/A   Partly Cloudy
9:00 PM 28.4 °F 24.6 °F 24.8 °F 86% 29.77 in 6.2 mi WSW 3.5 mph - N/A   Mostly Cloudy
9:30 PM 26.6 °F 20.0 °F 24.8 °F 93% 29.77 in 6.2 mi SW 5.8 mph - N/A   Scattered Clouds
10:00 PM 28.4 °F 20.4 °F 24.8 °F 86% 29.77 in 6.2 mi WSW 8.1 mph - N/A   Mostly Cloudy
10:14 PM 26.6 °F 18.2 °F 24.8 °F 93% 29.77 in 6.2 mi SW 8.1 mph - N/A   Scattered Clouds
10:30 PM 28.4 °F 21.2 °F 24.8 °F 86% 29.77 in 6.2 mi SW 6.9 mph - N/A   Partly Cloudy
11:00 PM 28.4 °F 21.2 °F 24.8 °F 86% 29.77 in 6.2 mi WSW 6.9 mph - N/A   Partly Cloudy
11:30 PM 26.6 °F 20.0 °F 24.8 °F 93% 29.77 in 6.2 mi SW 5.8 mph - N/A   Mostly Cloudy